STARLINK-35708, 66277

Orbit data source: Space-Track

STARLINK-35708, 66277 is a payload satellite owned by SpaceX/Seattle (US) in LEO that was launched on Fri, 31 Oct 2025 UTC via an FALCON 9 launch vehicle from the Air Force Western Test Range (AFWTR). Payload-class satellites include a variety of spacecraft equipped with specific instruments for various scientific and technological missions. These include communications satellites like Starlink; space stations such as the ISS; scientific satellites like the Hubble; Earth observation satellites from companies like Planet Labs, Umbra, and HawkEye 360; GPS; miniature CubeSats for education and research; and military/defense satellites.

Loading next visibility...
Identifier
66277, 2025-247N
Orbit
LEO
Country
Flag of USUS
Related business
Manufacturer
SpaceX/Seattle
Mission
Operational Commercial Communications
Bus & Motor
STARLINK V2MO, Unknown motor
Mass
575 kg wet, ~530 kg dry
Launch date (UTC)
2025-10-31 (8 months ago)
Launch vehicle
FALCON 9
Launch site
Air Force Western Test Range (AFWTR)
Object type
Payload
Rocket body
Debris
Shape & HBR
Box + 2 Pan, 17.7 m
Radar Cross Section
36.964 m², Large (>1 m²)

Expand to show TLE details & history
Last TLE update: 23 hours ago

TLE from 23 hours ago
0 STARLINK-35708
1 66277U 25247N   26170.94159600  .00026016  00000-0  77828-3 0  9998
2 66277  53.1594  74.7435 0001113  88.4080 271.7051 15.34406271 36769
Epoch: 2026-06-19T22:35Z
TLE epoch observation values (Epoch: 2026-06-19T22:35:53.894Z)
Latitude
0.00006°
Longitude
-172.39436°
Altitude
463.563 km
Speed
7.636 km/s
True Right ascension
04h 58m 58s
True Declination
0° 00' 00"
Sunlit
Object was in daylight at epoch
Visualization orbit readout
Latitude
Unknown
Longitude
Unknown
Altitude
Unknown
Speed
Unknown
Apparent Right ascension
Unknown
Apparent Declination
Unknown
Sunlit
N/A
Visualization observer readout
Local Sidereal Time
08:33:39
Azimuth
Unknown
Elevation
Unknown
Doppler factor
Unknown
Orbital elements
Apogee altitude
463.703 km
Perigee altitude
462.18 km
Semi-major axis
6,841.079 km
Eccentricity
0.00011
Inclination
53.1594°
RAAN
74.7435°
Arg. of periapsis
88.408°
True anomaly
271.69235°
Mean anomaly
271.7051°
Eccentric anomaly
271.69873°
Mean motion
3.8358 °/min
Orbital period
93.85 mins
BSTAR
0.00077828
Loading maneuver chart data...
Computing Atmospheric mass density...
Loading historical data...
Loading historical data...
Loading historical data...
Loading historical data...
Loading historical data...
Loading historical data...
Loading historical data...

Documentation

Showing up to 5 results
|